xnview.com alexa rank chart, xnview.com alexa rank daily changes

xnview.com alexa rank chart, xnview.com alexa rank daily changes

xnview.com
Actual rank:
41 549

RANK HISTORY

Date Rank Diff
2017/06/25 41 549 -447
2017/06/24 41 996 +342
2017/06/23 41 654 +372
2017/06/22 41 282 +267
2017/06/21 41 015 +492
2017/06/20 40 523 -277
2017/06/19 40 800 +26
2017/06/18 40 774 +49
2017/06/17 40 725 -642
2017/06/16 41 367 +722
2017/06/15 40 645 -771
2017/06/14 41 416 +406
2017/06/13 41 010 -308
2017/06/12 41 318 -462
2017/06/11 41 780 +356
2017/06/10 41 424 +362
2017/06/09 41 062 -463
2017/06/08 41 525 +548
2017/06/07 40 977 -145
2017/06/06 41 122 +1 069
2017/06/05 40 053 -152
2017/06/04 40 205 +571
2017/06/03 39 634 +533
2017/06/02 39 101 +471
2017/06/01 38 630 +199
2017/05/31 38 431 -720
2017/05/30 39 151 -382
2017/05/29 39 533 +483
2017/05/28 39 050 +370
2017/05/27 38 680 -311
2017/05/26 38 991 +184
2017/05/25 38 807 +585
2017/05/24 38 222 +97
2017/05/23 38 125 -354
2017/05/22 38 479 -103
2017/05/21 38 582 +496
2017/05/20 38 086 -145
2017/05/19 38 231 +35
2017/05/18 38 196 -75
2017/05/17 38 271 -127
2017/05/16 38 398 -197
2017/05/15 38 595 -153
2017/05/14 38 748 +115
2017/05/13 38 633 +212
2017/05/12 38 421 +214
2017/05/11 38 207 +35
2017/05/10 38 172 +224
2017/05/09 37 948 +253
2017/05/08 37 695 +312
2017/05/07 37 383 -15
2017/05/06 37 398 -1 048
2017/05/05 38 446 -537
2017/05/04 38 983 -390
2017/05/03 39 373 +93
2017/05/02 39 280 -325
2017/05/01 39 605 -424
2017/04/30 40 029 -392
2017/04/29 40 421 -478
2017/04/28 40 899 -498
2017/04/27 41 397 -168
2017/04/26 41 565

WIDGET FOR YOUR SITE

DOMAINS WITH THE NEAREST RANK

Domain Rank
getcash.trade 41 544
ucsusa.org 41 545
dvhab.ru 41 546
gdgs.gov.cn 41 547
nijibox5.com 41 548
xnview.com 41 549
humankinetics.com 41 550
xezerxeber.az 41 551
ceritatonton.com 41 552
levtech.jp 41 553
bodenusa.com 41 554

DOMAINS WITH THE NEAREST RANK BY TLD .com

Domain Rank
engineerjobs.com 41 535
xstory-fr.com 41 538
xiaodaoxing.com 41 540
myjewishlearning.com 41 541
nijibox5.com 41 548
xnview.com 41 549
humankinetics.com 41 550
ceritatonton.com 41 552
bodenusa.com 41 554
chance.com 41 555
ibookpile.com 41 559